[[{"header":{"parameterUnit":"m.s-1","parameterCategory":1,"la1":30.2991,"la2":30.254,"lo1":-89.0895,"lo2":-89.0444,"dy":0.0017,"dx":0.0017,"nx":28,"ny":28,"refTime":"2025-03-22T09:00:00:Z","depth":0,"parameterNumber":2,"parameterNumberName":"U-component_of_WINDS"},"data":[0,0,0,0,0,0,0,0,0,0,0,0,0,0,0,0,0,0,0,0,0,0,0,0,0,0,0,0,0,0,0,0,0,0,0,0,0,0,0,0,0,0,0,0,0,0,0,0,0,0,0,0,0,0,0,0,0,0,0.1559,0.156,0,0.1646,0.1647,0.1648,0.1658,0.1657,0.1656,0.1655,0.1746,0.1749,0.1752,0,0,0,0,0,0,0,0,0,0,0,0,0,0.14,0.1403,0.1559,0.156,0.1561,0.1646,0.1647,0.1649,0.1658,0.1657,0.1656,0.1655,0.1745,0.1749,0.1752,0,0,0,0,0,0,0,0,0,0,0,0,0,0.1477,0.1404,0.1559,0.1576,0.1579,0.1646,0.1647,0.1649,0.1658,0.1657,0.1655,0.1654,0.1743,0.1748,0.1753,0.1809,0,0,0.1768,0.177,0,0,0,0,0,0,0,0,0.1472,0.1482,0.1573,0.1575,0.1578,0.164,0.1625,0.1703,0.1658,0.1628,0.1655,0.1654,0.1712,0.1719,0.1738,0.1814,0.1818,0.1768,0.1771,0.1773,0.1775,0,0,0,0,0,0,0,0.1467,0.1479,0.1594,0.1574,0.1577,0.1579,0.1589,0.1639,0.1676,0.1631,0.1631,0.1642,0.1713,0.1734,0.1741,0.1819,0.1768,0.1772,0.1775,0.1777,0.1943,0.1944,0,0,0,0,0,0,0.1458,0.1474,0.1591,0.1596,0.1521,0.1583,0.1594,0.1621,0.1676,0.1683,0.1643,0.1642,0.1726,0.1735,0.1744,0.1812,0.1773,0.1778,0.1781,0.1941,0.1943,0.1944,0,0,0,0,0,0,0.1455,0.1469,0.1587,0.1536,0.1551,0.1587,0.1618,0.1624,0.1644,0.1685,0.1691,0.1657,0.1725,0.1737,0.1792,0.1815,0.178,0.1784,0.1939,0.1942,0.1944,0.195,0,0,0,0,0,0,0.145,0.1467,0.149,0.1536,0.1553,0.1635,0.162,0.1626,0.1653,0.1652,0.17,0.1707,0.1725,0.1785,0.1797,0.1821,0.1788,0.1937,0.194,0.1943,0.1948,0.1952,0.1956,0,0,0,0,0,0.1445,0.1489,0.1491,0.1505,0.1582,0.1636,0.1646,0.1666,0.1655,0.1677,0.1702,0.1705,0.1811,0.1791,0.1804,0.183,0.1936,0.194,0.1943,0.1946,0.1951,0.1956,0,0,0,0,0,0,0.1445,0.1495,0.1498,0.1558,0.1593,0.1638,0.1667,0.1671,0.171,0.1708,0.1731,0.1742,0.1796,0.1819,0.1796,0.1887,0.1872,0.1878,0.187,0.1875,0.1879,0.1873,0.1792,0,0,0,0,0,0.1452,0.1492,0.1534,0.1583,0.16,0.163,0.1654,0.1666,0.1703,0.1718,0.1748,0.1784,0.1824,0.1851,0.1891,0.1951,0.1961,0.1975,0.1979,0.1982,0.1988,0.2019,0.2025,0.1955,0.1955,0.1955,0,0,0.1468,0.15,0.1524,0.1584,0.1612,0.1652,0.1642,0.1686,0.1716,0.1725,0.1779,0.1801,0.1843,0.19,0.1927,0.192,0.2009,0.1987,0.1989,0.1992,0.2023,0.203,0.2035,0.1958,0.1957,0.1957,0,0,0.1516,0.1544,0.1588,0.1615,0.1658,0.1677,0.1687,0.1731,0.1746,0.18,0.1807,0.1843,0.1913,0.1942,0.1966,0.2022,0.2025,0.2034,0.2055,0.2085,0.2091,0.2096,0.2114,0.2121,0.2039,0.2039,0.2039,0,0.1529,0.159,0.161,0.1652,0.1678,0.1686,0.173,0.1756,0.1809,0.1827,0.1819,0.1906,0.1934,0.1997,0.2011,0.203,0.2042,0.2029,0.2088,0.2093,0.2098,0.2117,0.2124,0.204,0.204,0.204,0.204,0,0.1604,0.1646,0.1676,0.1726,0.1755,0.1798,0.1823,0.185,0.1859,0.1878,0.1932,0.1966,0.2013,0.2028,0.2038,0.2092,0.2087,0.2083,0.2069,0.2105,0.2123,0.213,0.2041,0.2041,0.204,0.204,0,0,0.1657,0.1715,0.1726,0.1748,0.1794,0.1826,0.1869,0.1913,0.1935,0.1971,0.2006,0.2065,0.2061,0.2087,0.21,0.2127,0.2167,0.212,0.2121,0.2127,0.2227,0.2229,0.2237,0.2169,0.2171,0.2172,0.2223,0,0.171,0.1786,0.1803,0.1868,0.1906,0.1913,0.195,0.1982,0.2001,0.2036,0.2057,0.2098,0.209,0.2106,0.2133,0.2156,0.2187,0.2153,0.2202,0.2204,0.2192,0.2247,0.225,0.2296,0.223,0.2232,0.2232,0,0.1782,0.1818,0.1886,0.1925,0.1942,0.1975,0.2015,0.2049,0.2084,0.2096,0.2125,0.2134,0.2178,0.2161,0.2221,0.2197,0.2218,0.2232,0.2234,0.224,0.222,0.2253,0.2312,0.2319,0.2244,0.2243,0.2242,0,0.1812,0.1878,0.1927,0.1945,0.1992,0.2015,0.2035,0.2069,0.2094,0.213,0.2146,0.2186,0.2208,0.2239,0.2259,0.2245,0.2316,0.2302,0.2327,0.2326,0.2342,0.2341,0.2405,0.2356,0.2356,0.2356,0.2356,0,0.1869,0.191,0.194,0.197,0.2016,0.2035,0.208,0.2101,0.2131,0.2164,0.2174,0.2205,0.2229,0.2263,0.2279,0.2325,0.2335,0.2346,0.2349,0.2345,0.2343,0.2359,0.2356,0.2358,0.2357,0.2357,0.2357,0,0.191,0.1932,0.1986,0.2025,0.2036,0.2068,0.2102,0.2131,0.2149,0.2191,0.2202,0.2232,0.2272,0.2295,0.2346,0.2356,0.2408,0.241,0.2396,0.2397,0.2421,0.2418,0.2497,0.2508,0.2452,0.2453,0.2453,0,0.1945,0.1977,0.2019,0.2042,0.2062,0.2099,0.2124,0.2143,0.2169,0.221,0.2234,0.2275,0.2309,0.2373,0.2399,0.2438,0.2441,0.2466,0.2447,0.244,0.244,0.2438,0.244,0.2469,0.247,0.247,0.247,0,0.2004,0.2013,0.2048,0.2087,0.2116,0.2147,0.2178,0.2196,0.222,0.2248,0.229,0.2316,0.2367,0.2407,0.2448,0.2469,0.2473,0.2476,0.2484,0.2479,0.2469,0.2474,0.2404,0.2474,0.2474,0.2474,0.2473,0.2473,0.2043,0.207,0.2104,0.2142,0.2167,0.2196,0.2224,0.2245,0.228,0.2323,0.2332,0.2375,0.2408,0.2463,0.2484,0.2518,0.2513,0.2525,0.2528,0.253,0.253,0.2464,0.2526,0.2526,0.2525,0.2525,0.2525,0,0.2101,0.2122,0.2157,0.22,0.223,0.2231,0.2264,0.2289,0.2327,0.2357,0.2389,0.2436,0.2474,0.2502,0.2541,0.2562,0.2565,0.2572,0.257,0.2575,0.2533,0.2522,0.2569,0.2569,0.2569,0.2569,0.2569,0.2569,0.2135,0.2181,0.2194,0.2252,0.2273,0.2315,0.2334,0.236,0.2383,0.2435,0.2466,0.2484,0.2512,0.2553,0.2588,0.2595,0.2609,0.2615,0.2622,0.2583,0.2578,0.2574,0.2563,0.2618,0.2618,0.2661,0.2662,0.2662]},{"header":{"parameterUnit":"m.s-1","parameterCategory":1,"la1":30.2991,"la2":30.254,"lo1":-89.0895,"lo2":-89.0444,"dy":0.0017,"dx":0.0017,"nx":28,"ny":28,"refTime":"2025-03-22T09:00:00:Z","depth":0,"parameterNumber":3,"parameterNumberName":"V-component_of_WINDS"},"data":[0,0,0,0,0,0,0,0,0,0,0,0,0,0,0,0,0,0,0,0,0,0,0,0,0,0,0,0,0,0,0,0,0,0,0,0,0,0,0,0,0,0,0,0,0,0,0,0,0,0,0,0,0,0,0,0,0,0,3.7664,3.7665,0,3.7699,3.77,3.77,3.7582,3.7578,3.7575,3.7571,3.7601,3.7605,3.7609,0,0,0,0,0,0,0,0,0,0,0,0,0,3.7489,3.7493,3.7664,3.7665,3.7665,3.7699,3.77,3.77,3.7582,3.7578,3.7574,3.757,3.76,3.7605,3.761,0,0,0,0,0,0,0,0,0,0,0,0,0,3.7549,3.7494,3.7664,3.7611,3.7606,3.7699,3.77,3.77,3.7583,3.7578,3.7572,3.7568,3.7598,3.7604,3.761,3.7755,0,0,3.7629,3.7632,0,0,0,0,0,0,0,0,3.7546,3.7555,3.7618,3.7614,3.761,3.7631,3.7649,3.7718,3.7584,3.7592,3.7571,3.7565,3.7615,3.7619,3.7637,3.7756,3.7758,3.763,3.7633,3.7636,3.7638,0,0,0,0,0,0,0,3.7542,3.7553,3.7678,3.7619,3.7614,3.7583,3.7585,3.7661,3.7632,3.7591,3.7582,3.7588,3.7612,3.7632,3.7637,3.7758,3.7629,3.7635,3.7639,3.7641,3.7997,3.8003,0,0,0,0,0,0,3.7545,3.7551,3.7677,3.7679,3.7564,3.759,3.7593,3.7629,3.7631,3.7627,3.7593,3.7583,3.7624,3.763,3.7638,3.7808,3.7636,3.7642,3.7645,3.7992,3.7999,3.8005,0,0,0,0,0,0,3.7542,3.7558,3.7675,3.7613,3.7625,3.7599,3.764,3.7633,3.7653,3.7633,3.7627,3.7619,3.762,3.7629,3.7727,3.7807,3.7645,3.765,3.7985,3.7994,3.8002,3.8149,0,0,0,0,0,0,3.7538,3.7557,3.7613,3.7615,3.7629,3.7766,3.7645,3.7637,3.7665,3.7652,3.7656,3.7652,3.7616,3.7719,3.7733,3.7813,3.7655,3.7978,3.7989,3.7999,3.8137,3.8161,3.8183,0,0,0,0,0,3.7532,3.7652,3.7617,3.7633,3.7699,3.7771,3.7779,3.7738,3.7672,3.7727,3.7714,3.7652,3.7796,3.773,3.7745,3.7828,3.7972,3.7986,3.7998,3.8126,3.8157,3.8182,0,0,0,0,0,0,3.7658,3.7651,3.7612,3.7737,3.7756,3.7751,3.7819,3.7771,3.7807,3.7793,3.7738,3.774,3.7848,3.7847,3.7773,3.7968,3.7873,3.7889,3.7965,3.7993,3.8016,3.8014,3.766,0,0,0,0,0,3.7701,3.7762,3.7752,3.7862,3.7874,3.7846,3.7875,3.7842,3.7859,3.7866,3.786,3.7877,3.7926,3.7959,3.8003,3.8136,3.8135,3.82,3.8223,3.8242,3.8257,3.8328,3.8356,3.8048,3.8047,3.8047,0,0,3.7789,3.7792,3.7834,3.7888,3.7899,3.7962,3.7853,3.7924,3.797,3.7875,3.7969,3.7965,3.798,3.8097,3.8147,3.8099,3.8342,3.8259,3.8274,3.8279,3.8344,3.8373,3.8399,3.8056,3.8055,3.8053,0,0,3.7982,3.7991,3.8085,3.8099,3.8117,3.8098,3.8121,3.8124,3.8119,3.8212,3.8142,3.8195,3.8281,3.8295,3.8313,3.8513,3.8457,3.8528,3.8648,3.8718,3.8742,3.8763,3.8835,3.8861,3.8543,3.8544,3.8544,0,3.8088,3.8183,3.8138,3.8216,3.8241,3.8161,3.8255,3.8269,3.8301,3.8319,3.8265,3.8372,3.8376,3.8495,3.8544,3.8562,3.8585,3.8528,3.8742,3.8763,3.8783,3.885,3.8877,3.8553,3.8552,3.8551,3.855,0,3.8313,3.838,3.8453,3.8488,3.8521,3.8606,3.8574,3.8612,3.8577,3.8562,3.8658,3.866,3.8704,3.873,3.8694,3.8844,3.8813,3.8752,3.8655,3.8822,3.8884,3.891,3.8565,3.8562,3.8559,3.8557,0,0,3.8586,3.8597,3.8625,3.864,3.8656,3.8705,3.8786,3.8831,3.8865,3.8889,3.8955,3.9031,3.8974,3.8995,3.896,3.9021,3.918,3.8952,3.8952,3.8995,3.9346,3.9392,3.9423,3.9143,3.9148,3.9152,3.9344,0,3.8776,3.8917,3.888,3.902,3.9081,3.9006,3.9076,3.9093,3.9082,3.913,3.9116,3.9171,3.9092,3.9104,3.9161,3.9149,3.925,3.9134,3.9203,3.9206,3.9202,3.9455,3.9505,3.9686,3.9369,3.9373,3.9376,0,3.9017,3.9054,3.9201,3.9207,3.9231,3.9296,3.9334,3.9382,3.9398,3.9385,3.941,3.9363,3.9441,3.9345,3.9451,3.9374,3.9399,3.9398,3.9404,3.9408,3.9301,3.9467,3.9743,3.9771,3.9414,3.9411,3.9408,0,3.9202,3.9288,3.9387,3.9403,3.9412,3.9459,3.9465,3.9476,3.9506,3.9539,3.9558,3.9599,3.9621,3.9653,3.9618,3.9551,3.973,3.963,3.9721,3.9723,3.9762,3.976,4.0047,3.9779,3.9779,3.9778,3.9778,0,3.9419,3.9512,3.9471,3.9532,3.9633,3.9589,3.969,3.9687,3.9698,3.9756,3.9693,3.9748,3.9698,3.9749,3.9722,3.9814,3.9825,3.9816,3.9808,3.9822,3.9823,3.9838,3.9825,3.9785,3.9784,3.9782,3.9781,0,3.9643,3.9619,3.9723,3.9724,3.9727,3.9802,3.9802,3.9857,3.9842,3.9916,3.9931,3.9907,3.9963,3.9932,3.9988,3.997,4.0091,4.0065,4.0086,4.008,4.0172,4.0164,4.0478,4.0517,4.0225,4.0228,4.023,0,3.9783,3.9853,3.9863,3.9899,3.991,3.9967,3.9998,3.9957,3.9991,4.0016,4.0068,4.012,4.0159,4.0252,4.0238,4.0281,4.0256,4.0363,4.0262,4.0275,4.0258,4.0255,4.0261,4.0384,4.0387,4.039,4.0392,0,4.0034,4.0019,4.0067,4.0112,4.0151,4.0184,4.021,4.0242,4.0202,4.0243,4.0301,4.0332,4.0391,4.0443,4.048,4.0484,4.0432,4.0424,4.0448,4.0463,4.0473,4.0469,4.0142,4.0417,4.0415,4.0413,4.0411,4.041,4.022,4.028,4.0297,4.0352,4.0369,4.0396,4.0449,4.0441,4.0489,4.0536,4.0508,4.0577,4.0591,4.0636,4.0647,4.0699,4.0655,4.0689,4.0698,4.0707,4.072,4.0465,4.0705,4.0704,4.0703,4.0703,4.0702,0,4.0468,4.0476,4.0528,4.0569,4.0613,4.0562,4.0589,4.0629,4.069,4.0709,4.075,4.0816,4.0866,4.0857,4.0902,4.0945,4.0923,4.0959,4.0955,4.0957,4.0756,4.0731,4.0977,4.0977,4.0976,4.0976,4.0976,4.0976,4.0603,4.0701,4.0688,4.0793,4.0799,4.0868,4.0888,4.0912,4.0927,4.1005,4.1047,4.1042,4.1049,4.1095,4.1138,4.1134,4.1153,4.1198,4.1186,4.0998,4.0971,4.0945,4.0922,4.1203,4.1203,4.1382,4.1384,4.1385]}]]